Weather History for Rogers, AR

Change the Weather History Date:

Sunday, May 5, 2013

  Actual Average Record
Temperature  
Mean Temperature 45 °F -  
Max Temperature 57 °F 70 °F 89 °F (2014)
Min Temperature 33 °F 52 °F 33 °F (2013)
Degree Days  
Heating Degree Days 20    
Moisture  
Dew Point 40 °F    
Average Humidity 84    
Maximum Humidity 100    
Minimum Humidity 59    
Precipitation  
Precipitation 0.00 in - - ()
Sea Level Pressure  
Sea Level Pressure 30.06 in    
Wind  
Wind Speed 6 mph (NW)    
Max Wind Speed 16 mph    
Max Gust Speed 18 mph    
Visibility 7 miles    
Events Fog    
Averages and records for this station are not official NWS values.
T = Trace of Precipitation, MM = Missing Value Source: NWS Daily Summary

Daily Weather History Graph

Daily Weather History Graph

Search for Another Location

Airport:

Trip Planner

Search our weather history database for the weather conditions in past years. The results will help you decide how hot, cold, wet, or windy it might be!

Date:

Astronomy

May. 05, 2013 Rise Set
Actual Time 6:18 AM CDT 8:08 PM CDT
Civil Twilight 5:50 AM CDT 8:36 PM CDT
Nautical Twilight 5:16 AM CDT 9:09 PM CDT
Astronomical Twilight 4:40 AM CDT 9:46 PM CDT
Moon 3:42 AM CDT (5/5) 4:14 PM CDT (5/5)
Length of Visible Light 14h 45m
Length of Day
13h 49m
Waning Crescent, 18% of the Moon is Illuminated
May 5
Waning Crescent
May 9
New
May 17
First Quarter
May 24
Full
May 31
Last Quarter

Hourly Weather History & Observations

Time (CDT) Temp. Windchill Dew Point Humidity Pressure Visibility Wind Dir Wind Speed Gust Speed Precip Events Conditions
12:57 AM 37.9 °F 34.4 °F 36.0 °F 93% 30.04 in 10.0 mi NW 4.6 mph - N/A   Mostly Cloudy
1:57 AM 37.9 °F 35.5 °F 36.0 °F 93% 30.03 in 10.0 mi North 3.5 mph - N/A   Mostly Cloudy
2:57 AM 37.0 °F 34.5 °F 35.1 °F 93% 30.02 in 10.0 mi NW 3.5 mph - N/A   Mostly Cloudy
3:57 AM 36.0 °F 31.1 °F 35.1 °F 97% 30.03 in 10.0 mi WNW 5.8 mph - N/A   Overcast
4:29 AM 35.6 °F 29.9 °F 33.8 °F 93% 30.03 in 7.0 mi WNW 6.9 mph - N/A   Mostly Cloudy
4:38 AM 35.6 °F 29.9 °F 33.8 °F 93% - 6.0 mi WNW 6.9 mph - N/A   Mostly Cloudy
4:57 AM 35.6 °F 32.8 °F 33.8 °F 93% 30.02 in 6.0 mi NNW 3.5 mph - N/A   Scattered Clouds
4:59 AM 35.1 °F 32.2 °F 34.0 °F 96% 30.04 in 6.0 mi NNW 3.5 mph - N/A   Scattered Clouds
5:43 AM 33.8 °F 28.6 °F 33.8 °F 100% 30.04 in 5.0 mi NW 5.8 mph - N/A   Mostly Cloudy
5:57 AM 34.0 °F 31.0 °F 33.1 °F 96% 30.06 in 6.0 mi NNW 3.5 mph - N/A   Overcast
6:16 AM 33.8 °F 29.6 °F 33.8 °F 100% 30.04 in 2.5 mi WNW 4.6 mph - N/A   Overcast
6:25 AM 33.8 °F 28.6 °F 33.8 °F 100% 30.04 in 0.8 mi WNW 5.8 mph - N/A   Overcast
6:28 AM 33.8 °F 27.0 °F 33.8 °F 100% 30.04 in 0.2 mi WNW 8.1 mph - N/A Fog Fog
6:57 AM 35.1 °F 29.3 °F 34.0 °F 96% 30.07 in 0.2 mi NW 6.9 mph - N/A Fog Fog
7:44 AM 35.6 °F 31.7 °F 35.6 °F 100% 30.06 in 0.5 mi North 4.6 mph - N/A Fog Fog
7:50 AM 37.4 °F 33.8 °F 35.6 °F 93% 30.07 in 0.8 mi NNW 4.6 mph - N/A   Overcast
7:53 AM 37.4 °F 34.9 °F 35.6 °F 93% 30.07 in 1.0 mi Variable 3.5 mph - N/A   Overcast
7:57 AM 37.4 °F 33.8 °F 37.4 °F 100% 30.07 in 1.2 mi Variable 4.6 mph - N/A   Overcast
7:59 AM 37.9 °F 34.4 °F 37.0 °F 97% 30.09 in 1.2 mi NNW 4.6 mph - N/A   Overcast
8:09 AM 37.4 °F 32.8 °F 37.4 °F 100% 30.08 in 2.0 mi NNW 5.8 mph - N/A   Overcast
8:25 AM 39.2 °F 34.2 °F 37.4 °F 93% 30.08 in 3.0 mi NW 6.9 mph - N/A   Overcast
8:53 AM 42.8 °F 38.6 °F 41.0 °F 93% 30.08 in 10.0 mi NW 6.9 mph - N/A   Mostly Cloudy
8:57 AM 42.1 °F 37.1 °F 42.1 °F 100% 30.10 in 10.0 mi NNW 8.1 mph - N/A   Mostly Cloudy
9:13 AM 44.6 °F 39.7 °F 42.8 °F 93% 30.09 in 10.0 mi NW 9.2 mph - N/A   Overcast
9:43 AM 44.6 °F 40.7 °F 39.2 °F 81% 30.08 in 10.0 mi NW 6.9 mph - N/A   Overcast
9:57 AM 46.0 °F 41.4 °F 37.9 °F 73% 30.10 in 10.0 mi NNW 9.2 mph 18.4 mph N/A   Overcast
10:42 AM 48.2 °F - 39.2 °F 71% 30.09 in 10.0 mi Variable 6.9 mph - N/A   Mostly Cloudy
10:47 AM 48.2 °F - 39.2 °F 71% 30.10 in 10.0 mi North 12.7 mph 16.1 mph N/A   Mostly Cloudy
10:57 AM 50.0 °F - 39.9 °F 68% 30.11 in 10.0 mi NNW 9.2 mph 16.1 mph N/A   Mostly Cloudy
11:46 AM 51.8 °F - 39.2 °F 62% 30.09 in 10.0 mi NW 9.2 mph - N/A   Scattered Clouds
11:54 AM 51.8 °F - 41.0 °F 67% 30.09 in 10.0 mi Calm Calm - N/A   Mostly Cloudy
11:57 AM 52.0 °F - 41.0 °F 66% 30.10 in 10.0 mi Variable 6.9 mph - N/A   Mostly Cloudy
12:05 PM 53.6 °F - 41.0 °F 62% 30.09 in 10.0 mi North 11.5 mph 16.1 mph N/A   Scattered Clouds
12:57 PM 55.0 °F - 41.0 °F 59% 30.07 in 10.0 mi NNW 12.7 mph - N/A   Clear
1:57 PM 57.0 °F - 44.1 °F 62% 30.06 in 10.0 mi NW 11.5 mph 18.4 mph N/A   Partly Cloudy
2:57 PM 57.9 °F - 45.0 °F 62% 30.06 in 10.0 mi NW 10.4 mph 18.4 mph N/A   Overcast
3:57 PM 57.9 °F - 45.0 °F 62% 30.05 in 10.0 mi NW 10.4 mph - N/A   Overcast
4:57 PM 57.2 °F - 46.4 °F 67% 30.05 in 10.0 mi NW 15.0 mph - N/A   Overcast
4:59 PM 55.9 °F - 46.0 °F 69% 30.05 in 10.0 mi NW 16.1 mph - N/A   Overcast
5:57 PM 55.9 °F - 46.0 °F 69% 30.05 in 10.0 mi NNW 6.9 mph - N/A   Overcast
6:57 PM 54.0 °F - 46.9 °F 77% 30.06 in 10.0 mi NW 8.1 mph - N/A   Overcast
7:57 PM 53.1 °F - 46.9 °F 80% 30.04 in 10.0 mi West 8.1 mph - N/A   Overcast
8:18 PM 51.8 °F - 46.4 °F 82% 30.03 in 10.0 mi WNW 10.4 mph - N/A   Scattered Clouds
8:57 PM 51.8 °F - 46.4 °F 82% 30.05 in 10.0 mi WNW 6.9 mph - N/A   Mostly Cloudy
8:59 PM 52.0 °F - 46.9 °F 83% 30.06 in 10.0 mi WNW 6.9 mph - N/A   Mostly Cloudy
10:57 PM 52.0 °F - 46.9 °F 83% 30.07 in 10.0 mi NW 9.2 mph - N/A   Overcast
11:57 PM 51.1 °F - 46.9 °F 86% 30.06 in 10.0 mi NW 11.5 mph - N/A   Overcast